Time,TemperatureF,DewpointF,PressureIn,WindDirection,WindDirectionDegrees,WindSpeedMPH,WindSpeedGustMPH,Humidity,HourlyPrecipIn,Conditions,Clouds,dailyrainin,SoftwareType,DateUTC
2013-06-30 00:01:00,75.2,69.0,21.52,SE,130,4.0,7.0,82,0.00,,,0.00,weatherlink.com 1.10,2013-06-30 02:01:00,
2013-06-30 00:17:00,74.7,69.0,21.52,South,182,0.0,5.0,82,0.00,,,0.00,weatherlink.com 1.10,2013-06-30 02:17:00,
2013-06-30 00:32:00,74.1,68.0,21.52,SSE,155,0.0,5.0,82,0.00,,,0.00,weatherlink.com 1.10,2013-06-30 02:32:00,
2013-06-30 00:47:00,73.5,67.0,21.52,SE,133,0.0,2.0,81,0.00,,,0.00,weatherlink.com 1.10,2013-06-30 02:47:00,
2013-06-30 01:03:00,73.2,68.0,21.52,SE,132,2.0,4.0,83,0.00,,,0.00,weatherlink.com 1.10,2013-06-30 03:03:00,
2013-06-30 01:19:00,73.0,68.0,21.52,SE,132,2.0,3.0,84,0.00,,,0.00,weatherlink.com 1.10,2013-06-30 03:19:00,
2013-06-30 01:34:00,73.0,68.0,21.52,ESE,110,2.0,4.0,84,0.00,,,0.00,weatherlink.com 1.10,2013-06-30 03:34:00,
2013-06-30 01:49:00,73.0,68.0,21.52,ESE,111,1.0,4.0,84,0.00,,,0.00,weatherlink.com 1.10,2013-06-30 03:49:00,
2013-06-30 02:05:00,72.7,69.0,21.52,ESE,110,2.0,4.0,87,0.00,,,0.00,weatherlink.com 1.10,2013-06-30 04:05:00,
2013-06-30 02:21:00,72.1,68.0,21.52,ESE,111,0.0,3.0,88,0.00,,,0.00,weatherlink.com 1.10,2013-06-30 04:21:00,
2013-06-30 02:36:00,71.5,68.0,21.52,ESE,111,0.0,0.0,90,0.00,,,0.00,weatherlink.com 1.10,2013-06-30 04:36:00,
2013-06-30 02:51:00,70.8,68.0,21.52,ESE,110,0.0,1.0,91,0.00,,,0.00,weatherlink.com 1.10,2013-06-30 04:51:00,
2013-06-30 03:07:00,70.5,68.0,21.52,ESE,111,0.0,1.0,92,0.00,,,0.00,weatherlink.com 1.10,2013-06-30 05:07:00,
2013-06-30 03:22:00,70.3,68.0,21.52,ESE,111,0.0,2.0,93,0.00,,,0.00,weatherlink.com 1.10,2013-06-30 05:22:00,
2013-06-30 03:38:00,70.0,68.0,21.52,ESE,111,0.0,1.0,94,0.00,,,0.00,weatherlink.com 1.10,2013-06-30 05:38:00,
2013-06-30 03:53:00,69.4,68.0,21.52,ESE,110,0.0,1.0,94,0.00,,,0.00,weatherlink.com 1.10,2013-06-30 05:53:00,
2013-06-30 04:08:00,69.1,68.0,21.52,ESE,110,0.0,0.0,95,0.00,,,0.00,weatherlink.com 1.10,2013-06-30 06:08:00,
2013-06-30 04:24:00,69.0,68.0,21.52,ESE,111,0.0,1.0,96,0.00,,,0.00,weatherlink.com 1.10,2013-06-30 06:24:00,
2013-06-30 04:39:00,69.2,68.0,21.52,ESE,111,0.0,0.0,96,0.00,,,0.00,weatherlink.com 1.10,2013-06-30 06:39:00,
2013-06-30 04:54:00,69.1,68.0,21.52,ESE,110,0.0,0.0,96,0.00,,,0.00,weatherlink.com 1.10,2013-06-30 06:54:00,
2013-06-30 05:10:00,69.1,68.0,21.52,ESE,111,0.0,0.0,96,0.00,,,0.00,weatherlink.com 1.10,2013-06-30 07:10:00,
2013-06-30 05:25:00,69.0,68.0,21.52,ESE,110,0.0,0.0,97,0.00,,,0.00,weatherlink.com 1.10,2013-06-30 07:25:00,
2013-06-30 05:41:00,68.8,68.0,21.52,ESE,111,0.0,0.0,96,0.00,,,0.00,weatherlink.com 1.10,2013-06-30 07:41:00,
2013-06-30 05:56:00,68.5,68.0,21.52,ESE,111,0.0,2.0,97,0.00,,,0.00,weatherlink.com 1.10,2013-06-30 07:56:00,
2013-06-30 06:11:00,68.5,68.0,21.52,ESE,111,1.0,2.0,97,0.00,,,0.00,weatherlink.com 1.10,2013-06-30 08:11:00,
2013-06-30 06:27:00,68.4,68.0,21.52,ESE,111,0.0,0.0,97,0.00,,,0.00,weatherlink.com 1.10,2013-06-30 08:27:00,
2013-06-30 06:42:00,68.3,67.0,21.52,ESE,110,0.0,1.0,97,0.00,,,0.00,weatherlink.com 1.10,2013-06-30 08:42:00,
2013-06-30 06:58:00,68.0,67.0,21.52,ESE,111,0.0,2.0,97,0.00,,,0.00,weatherlink.com 1.10,2013-06-30 08:58:00,
2013-06-30 07:13:00,67.9,67.0,21.52,ESE,111,0.0,0.0,98,0.00,,,0.00,weatherlink.com 1.10,2013-06-30 09:13:00,
2013-06-30 07:28:00,67.4,67.0,21.52,ESE,111,0.0,0.0,98,0.00,,,0.00,weatherlink.com 1.10,2013-06-30 09:28:00,
2013-06-30 07:44:00,67.6,67.0,21.52,ESE,110,0.0,0.0,98,0.00,,,0.00,weatherlink.com 1.10,2013-06-30 09:44:00,
2013-06-30 07:59:00,67.9,67.0,21.52,ESE,110,0.0,0.0,98,0.00,,,0.00,weatherlink.com 1.10,2013-06-30 09:59:00,
2013-06-30 08:14:00,67.9,67.0,21.52,ESE,111,0.0,3.0,98,0.00,,,0.00,weatherlink.com 1.10,2013-06-30 10:14:00,
2013-06-30 08:30:00,68.1,68.0,21.52,ESE,110,0.0,3.0,98,0.00,,,0.00,weatherlink.com 1.10,2013-06-30 10:30:00,
2013-06-30 08:46:00,68.0,67.0,21.52,ESE,111,0.0,4.0,98,0.00,,,0.00,weatherlink.com 1.10,2013-06-30 10:46:00,
2013-06-30 09:01:00,68.3,68.0,21.52,ESE,111,0.0,3.0,98,0.00,,,0.00,weatherlink.com 1.10,2013-06-30 11:01:00,
2013-06-30 09:17:00,68.5,68.0,21.52,ESE,111,0.0,1.0,98,0.00,,,0.00,weatherlink.com 1.10,2013-06-30 11:17:00,
2013-06-30 09:32:00,68.5,68.0,21.52,ESE,110,0.0,0.0,99,0.00,,,0.00,weatherlink.com 1.10,2013-06-30 11:32:00,
2013-06-30 09:47:00,68.7,68.0,21.52,ESE,111,0.0,2.0,99,0.01,,,0.01,weatherlink.com 1.10,2013-06-30 11:47:00,
2013-06-30 10:02:00,68.8,69.0,21.52,ESE,110,0.0,0.0,99,0.01,,,0.01,weatherlink.com 1.10,2013-06-30 12:02:00,
2013-06-30 10:19:00,68.9,68.0,21.52,ESE,111,0.0,1.0,98,0.01,,,0.01,weatherlink.com 1.10,2013-06-30 12:19:00,
2013-06-30 10:34:00,69.1,69.0,21.52,ESE,110,0.0,2.0,98,0.01,,,0.01,weatherlink.com 1.10,2013-06-30 12:34:00,
2013-06-30 10:49:00,69.3,69.0,21.52,East,101,2.0,3.0,99,0.00,,,0.01,weatherlink.com 1.10,2013-06-30 12:49:00,
2013-06-30 11:04:00,69.8,69.0,21.52,East,99,0.0,3.0,98,0.00,,,0.01,weatherlink.com 1.10,2013-06-30 13:04:00,
2013-06-30 11:20:00,70.5,70.0,21.52,East,99,0.0,2.0,98,0.00,,,0.01,weatherlink.com 1.10,2013-06-30 13:20:00,
2013-06-30 11:36:00,71.4,71.0,21.52,NNE,15,0.0,3.0,98,0.00,,,0.01,weatherlink.com 1.10,2013-06-30 13:36:00,
2013-06-30 11:51:00,72.2,71.0,21.52,WNW,282,0.0,2.0,97,0.00,,,0.01,weatherlink.com 1.10,2013-06-30 13:51:00,
2013-06-30 12:06:00,73.5,72.0,21.52,North,11,1.0,6.0,94,0.00,,,0.01,weatherlink.com 1.10,2013-06-30 14:06:00,
2013-06-30 12:22:00,74.2,71.0,21.52,North,11,1.0,3.0,91,0.00,,,0.01,weatherlink.com 1.10,2013-06-30 14:22:00,
2013-06-30 12:37:00,75.4,72.0,21.52,North,10,0.0,4.0,88,0.00,,,0.01,weatherlink.com 1.10,2013-06-30 14:37:00,
2013-06-30 12:53:00,76.2,71.0,21.52,East,82,3.0,6.0,85,0.00,,,0.01,weatherlink.com 1.10,2013-06-30 14:53:00,
2013-06-30 13:08:00,76.1,72.0,21.52,ENE,76,0.0,4.0,87,0.00,,,0.01,weatherlink.com 1.10,2013-06-30 15:08:00,
2013-06-30 13:23:00,77.8,73.0,21.52,ESE,110,1.0,5.0,85,0.00,,,0.01,weatherlink.com 1.10,2013-06-30 15:23:00,
2013-06-30 13:39:00,77.7,71.0,21.52,ESE,112,3.0,4.0,80,0.00,,,0.01,weatherlink.com 1.10,2013-06-30 15:39:00,
2013-06-30 13:54:00,78.2,73.0,21.52,SSE,168,2.0,6.0,83,0.00,,,0.01,weatherlink.com 1.10,2013-06-30 15:54:00,
2013-06-30 14:09:00,78.7,72.0,21.52,SSE,168,2.0,3.0,79,0.00,,,0.01,weatherlink.com 1.10,2013-06-30 16:09:00,
2013-06-30 14:25:00,79.7,72.0,21.52,South,176,0.0,7.0,77,0.00,,,0.01,weatherlink.com 1.10,2013-06-30 16:25:00,
2013-06-30 14:40:00,79.1,71.0,21.52,ESE,107,3.0,6.0,76,0.00,,,0.01,weatherlink.com 1.10,2013-06-30 16:40:00,
2013-06-30 14:56:00,80.2,72.0,21.52,SW,221,0.0,4.0,76,0.00,,,0.01,weatherlink.com 1.10,2013-06-30 16:56:00,
2013-06-30 15:11:00,81.0,72.0,21.52,East,95,5.0,5.0,73,0.00,,,0.01,weatherlink.com 1.10,2013-06-30 17:11:00,
2013-06-30 15:27:00,82.1,74.0,21.52,SE,132,4.0,6.0,77,0.00,,,0.01,weatherlink.com 1.10,2013-06-30 17:27:00,
2013-06-30 15:42:00,81.9,72.0,21.52,SE,132,0.0,5.0,72,0.00,,,0.01,weatherlink.com 1.10,2013-06-30 17:42:00,
2013-06-30 15:57:00,81.8,73.0,21.52,SE,138,2.0,6.0,74,0.00,,,0.01,weatherlink.com 1.10,2013-06-30 17:57:00,
2013-06-30 16:12:00,81.4,72.0,21.52,SSE,152,2.0,5.0,72,0.00,,,0.01,weatherlink.com 1.10,2013-06-30 18:12:00,
2013-06-30 16:28:00,81.2,72.0,21.52,ESE,123,0.0,4.0,73,0.00,,,0.01,weatherlink.com 1.10,2013-06-30 18:28:00,
2013-06-30 16:43:00,81.1,71.0,21.52,ESE,123,3.0,3.0,72,0.00,,,0.01,weatherlink.com 1.10,2013-06-30 18:43:00,
2013-06-30 16:58:00,81.3,72.0,21.52,ESE,106,2.0,5.0,74,0.00,,,0.01,weatherlink.com 1.10,2013-06-30 18:58:00,
2013-06-30 17:14:00,82.3,73.0,21.52,SE,131,1.0,4.0,73,0.00,,,0.01,weatherlink.com 1.10,2013-06-30 19:14:00,
2013-06-30 17:29:00,82.3,73.0,21.52,NE,44,1.0,7.0,74,0.00,,,0.01,weatherlink.com 1.10,2013-06-30 19:29:00,
2013-06-30 17:45:00,83.3,71.0,21.52,South,180,0.0,9.0,67,0.00,,,0.01,weatherlink.com 1.10,2013-06-30 19:45:00,
2013-06-30 18:00:00,83.6,71.0,21.52,SSE,165,2.0,5.0,65,0.00,,,0.01,weatherlink.com 1.10,2013-06-30 20:00:00,
2013-06-30 18:16:00,82.9,70.0,21.52,ESE,103,1.0,4.0,65,0.00,,,0.01,weatherlink.com 1.10,2013-06-30 20:16:00,
2013-06-30 18:31:00,83.5,72.0,21.52,SW,229,4.0,7.0,69,0.00,,,0.01,weatherlink.com 1.10,2013-06-30 20:31:00,
2013-06-30 18:46:00,84.3,71.0,21.52,SSE,164,1.0,8.0,65,0.00,,,0.01,weatherlink.com 1.10,2013-06-30 20:46:00,
2013-06-30 19:02:00,83.9,73.0,21.52,SE,137,2.0,6.0,70,0.00,,,0.01,weatherlink.com 1.10,2013-06-30 21:02:00,
2013-06-30 19:17:00,82.9,73.0,21.52,SSE,158,0.0,6.0,71,0.00,,,0.01,weatherlink.com 1.10,2013-06-30 21:17:00,
2013-06-30 19:33:00,82.4,72.0,21.52,SE,141,1.0,6.0,71,0.00,,,0.01,weatherlink.com 1.10,2013-06-30 21:33:00,
2013-06-30 19:49:00,81.4,72.0,21.52,South,174,0.0,8.0,74,0.00,,,0.01,weatherlink.com 1.10,2013-06-30 21:49:00,
2013-06-30 20:04:00,80.9,72.0,21.52,South,179,3.0,4.0,75,0.00,,,0.01,weatherlink.com 1.10,2013-06-30 22:04:00,
2013-06-30 20:19:00,80.5,73.0,21.63,South,179,0.0,1.0,78,0.00,,,0.01,weatherlink.com 1.10,2013-06-30 22:19:00,
2013-06-30 20:35:00,79.6,72.0,21.63,South,179,0.0,1.0,78,0.00,,,0.01,weatherlink.com 1.10,2013-06-30 22:35:00,
2013-06-30 20:50:00,78.7,72.0,21.60,South,178,0.0,3.0,81,0.00,,,0.01,weatherlink.com 1.10,2013-06-30 22:50:00,
2013-06-30 21:06:00,78.2,73.0,21.63,South,178,0.0,2.0,83,0.00,,,0.01,weatherlink.com 1.10,2013-06-30 23:06:00,
2013-06-30 21:21:00,77.7,72.0,21.63,SE,134,2.0,7.0,84,0.00,,,0.01,weatherlink.com 1.10,2013-06-30 23:21:00,
2013-06-30 21:37:00,77.0,73.0,21.63,SE,136,4.0,6.0,87,0.00,,,0.01,weatherlink.com 1.10,2013-06-30 23:37:00,
2013-06-30 21:52:00,75.7,72.0,21.63,SSE,161,3.0,10.0,88,0.00,,,0.01,weatherlink.com 1.10,2013-06-30 23:52:00,
2013-06-30 22:07:00,73.5,70.0,0.00,SSE,164,4.0,11.0,90,0.06,,,0.07,weatherlink.com 1.10,2013-07-01 00:07:00,
2013-06-30 22:23:00,71.8,70.0,0.00,South,173,4.0,13.0,94,0.14,,,0.15,weatherlink.com 1.10,2013-07-01 00:23:00,
2013-06-30 22:38:00,70.9,69.0,0.00,SSW,205,6.0,13.0,95,0.16,,,0.18,weatherlink.com 1.10,2013-07-01 00:38:00,
2013-06-30 22:53:00,69.6,68.0,0.00,SSE,162,10.0,10.0,95,0.19,,,0.20,weatherlink.com 1.10,2013-07-01 00:53:00,
2013-06-30 23:09:00,69.0,68.0,0.00,South,179,4.0,9.0,95,0.14,,,0.22,weatherlink.com 1.10,2013-07-01 01:09:00,
2013-06-30 23:26:00,68.9,68.0,0.00,South,172,1.0,3.0,96,0.08,,,0.24,weatherlink.com 1.10,2013-07-01 01:26:00,